FW8526 Weather Reports


Display with metric or nautical units.
time (UTC)temp
F
wind
direction
speed
MPH
gust
MPH
rain 1hr
in
rain 24hr
in
rain mn
in
humidity
%
barometer
mb
20260504070205 54 40 24.0 27.0 0.00 0.00 0.00 35 1010.3
20260504060126 58 28 17.0 21.0 0.00 0.00 0.00 36 1008.9
20260504050554 57 45 19.0 23.0 0.00 0.00 0.00 38 1008.0
20260504045719 55 46 12.0 14.0 0.00 0.00 0.00 39 1008.4
20260504045548 55 45 12.0 13.0 0.00 0.00 0.00 39 1008.1
20260504045043 56 45 11.0 14.0 0.00 0.00 0.00 38 1008.1
20260504044816 56 45 11.0 12.0 0.00 0.00 0.00 38 1008.1
20260504044718 56 45 11.0 13.0 0.00 0.00 0.00 38 1008.1
20260504044541 57 46 12.0 13.0 0.00 0.00 0.00 37 1007.9
20260504044038 57 45 12.0 13.0 0.00 0.00 0.00 36 1007.8
20260504043719 57 45 11.0 13.0 0.00 0.00 0.00 36 1008.0
20260504043534 58 45 12.0 13.0 0.00 0.00 0.00 35 1007.9
20260504043032 58 45 13.0 14.0 0.00 0.00 0.00 36 1007.8
20260504042718 58 45 13.0 15.0 0.00 0.00 0.00 35 1008.0
20260504042529 58 45 13.0 15.0 0.00 0.00 0.00 35 1007.9
20260504042026 59 45 14.0 17.0 0.00 0.00 0.00 34 1007.8
20260504041718 59 45 11.0 12.0 0.00 0.00 0.00 34 1008.0
20260504041522 60 45 11.0 12.0 0.00 0.00 0.00 34 1007.7
20260504041018 60 49 10.0 12.0 0.00 0.00 0.00 34 1007.8
20260504040718 59 65 9.0 10.0 0.00 0.00 0.00 34 1008.0
20260504040619 59 59 9.0 10.0 0.00 0.00 0.00 33 1007.9
20260504040516 60 63 8.0 10.0 0.00 0.00 0.00 33 1007.8
20260504040012 60 66 9.0 10.0 0.00 0.00 0.00 32 1007.7
20260504035509 61 46 9.0 9.0 0.00 0.00 0.00 30 1007.8
20260504035005 62 45 10.0 11.0 0.00 0.00 0.00 29 1007.8
20260504034503 63 45 11.0 12.0 0.00 0.00 0.00 27 1007.6
20260504034000 64 43 10.0 11.0 0.00 0.00 0.00 26 1007.7
20260504033457 65 22 10.0 11.0 0.00 0.00 0.00 27 1007.7
20260504032955 65 15 13.0 15.0 0.00 0.00 0.00 27 1007.7
20260504032619 65 7 14.0 17.0 0.00 0.00 0.00 27 1007.7
20260504032519 65 8 13.0 16.0 0.00 0.00 0.00 27 1007.8
20260504032451 65 6 15.0 19.0 0.00 0.00 0.00 27 1007.7
20260504031948 66 3 14.0 17.0 0.00 0.00 0.00 26 1007.6
20260504031616 66 8 13.0 17.0 0.00 0.00 0.00 26 1007.9
20260504031445 67 8 13.0 17.0 0.00 0.00 0.00 25 1007.7
20260504030942 67 4 13.0 15.0 0.00 0.00 0.00 26 1007.7
20260504030617 67 3 12.0 15.0 0.00 0.00 0.00 25 1007.7
20260504030439 68 1 12.0 15.0 0.00 0.00 0.00 25 1007.7
20260504025935 69 4 13.0 14.0 0.00 0.00 0.00 23 1007.8
20260504025618 68 1 16.0 19.0 0.00 0.00 0.00 23 1007.7
20260504025432 69 360 15.0 18.0 0.00 0.00 0.00 24 1007.5
20260504024929 69 3 14.0 18.0 0.00 0.00 0.00 22 1007.7
20260504024618 69 360 15.0 18.0 0.00 0.00 0.00 22 1007.8
20260504024426 70 360 16.0 19.0 0.00 0.00 0.00 22 1007.7
20260504023923 70 360 16.0 20.0 0.00 0.00 0.00 22 1007.6
20260504023419 70 7 15.0 18.0 0.00 0.00 0.00 23 1007.7
20260504022915 71 360 16.0 19.0 0.00 0.00 0.00 21 1007.6
20260504022717 70 360 14.0 18.0 0.00 0.00 0.00 22 1007.8
20260504022412 71 356 16.0 18.0 0.00 0.00 0.00 21 1007.6
20260504021908 71 346 16.0 20.0 0.00 0.00 0.00 21 1007.7
20260504021816 71 346 15.0 19.0 0.00 0.00 0.00 21 1007.9
20260504021406 71 344 14.0 17.0 0.00 0.00 0.00 21 1007.7
20260504020903 71 356 15.0 19.0 0.00 0.00 0.00 22 1007.8
20260504020818 71 356 15.0 19.0 0.00 0.00 0.00 22 1008.0
20260504020359 71 352 16.0 21.0 0.00 0.00 0.00 22 1007.9
20260504015855 71 352 14.0 18.0 0.00 0.00 0.00 21 1007.9
20260504015818 71 352 14.0 17.0 0.00 0.00 0.00 21 1008.1
20260504015351 72 353 17.0 20.0 0.00 0.00 0.00 21 1007.8
20260504014848 72 344 16.0 20.0 0.00 0.00 0.00 21 1007.8
20260504014817 72 344 15.0 20.0 0.00 0.00 0.00 21 1008.0
20260504014343 72 338 18.0 24.0 0.00 0.00 0.00 21 1007.8
20260504013841 73 334 12.0 16.0 0.00 0.00 0.00 19 1008.1
20260504013819 72 334 12.0 15.0 0.00 0.00 0.00 19 1008.3
20260504013339 73 335 17.0 24.0 0.00 0.00 0.00 19 1008.1
20260504012836 73 307 7.0 12.0 0.00 0.00 0.00 19 1007.9
20260504012333 73 312 8.0 11.0 0.00 0.00 0.00 20 1008.1
20260504011831 73 327 10.0 14.0 0.00 0.00 0.00 20 1008.2
20260504011818 72 327 9.0 13.0 0.00 0.00 0.00 20 1008.4
20260504011719 73 326 9.0 13.0 0.00 0.00 0.00 19 1008.4
20260504011327 73 336 16.0 22.0 0.00 0.00 0.00 20 1008.0
20260504010823 73 316 8.0 13.0 0.00 0.00 0.00 20 1008.2
20260504010717 73 314 7.0 14.0 0.00 0.00 0.00 19 1008.4
20260504010319 74 320 9.0 13.0 0.00 0.00 0.00 20 1008.2
20260504005816 74 313 8.0 19.0 0.00 0.00 0.00 19 1008.2
20260504005717 73 313 8.0 19.0 0.00 0.00 0.00 19 1008.4
20260504005313 74 338 15.0 20.0 0.00 0.00 0.00 19 1008.1
20260504004810 74 271 3.0 8.0 0.00 0.00 0.00 19 1008.4
20260504004718 73 271 2.0 7.0 0.00 0.00 0.00 19 1008.5
20260504004308 74 318 7.0 11.0 0.00 0.00 0.00 19 1008.4
20260504003804 74 4 18.0 24.0 0.00 0.00 0.00 19 1008.2
20260504003720 74 4 17.0 23.0 0.00 0.00 0.00 19 1008.4
20260504003301 74 297 5.0 13.0 0.00 0.00 0.00 18 1008.4
20260504002757 74 292 2.0 5.0 0.00 0.00 0.00 19 1008.5
20260504002717 73 292 2.0 5.0 0.00 0.00 0.00 19 1008.7
20260504002254 75 341 16.0 21.0 0.00 0.00 0.00 17 1008.4
20260504001752 75 320 10.0 15.0 0.00 0.00 0.00 18 1008.2
20260504001249 75 324 12.0 19.0 0.00 0.00 0.00 17 1008.4
20260504000816 74 290 4.0 11.0 0.00 0.00 0.00 17 1008.5
20260504000746 75 288 6.0 11.0 0.00 0.00 0.00 18 1008.5
20260504000243 74 313 8.0 14.0 0.00 0.00 0.00 17 1008.4
20260503235817 74 313 9.0 13.0 0.00 0.00 0.00 18 1008.6
20260503235741 75 310 8.0 13.0 0.00 0.00 0.00 18 1008.4
20260503235237 75 289 5.0 11.0 0.00 0.00 0.00 17 1008.7
20260503234916 74 270 11.0 15.0 0.00 0.00 0.00 18 1008.5
20260503234735 75 270 5.0 8.0 0.00 0.00 0.00 18 1008.5
20260503234233 74 292 3.0 6.0 0.00 0.00 0.00 17 1008.7
20260503233919 73 290 3.0 7.0 0.00 0.00 0.00 18 1008.7
20260503233730 73 281 4.0 9.0 0.00 0.00 0.00 18 1008.7
20260503233226 74 348 18.0 21.0 0.00 0.00 0.00 17 1008.5
20260503232918 74 334 18.0 23.0 0.00 0.00 0.00 17 1008.8
20260503232723 75 343 21.0 26.0 0.00 0.00 0.00 16 1008.5
20260503232220 75 271 6.0 12.0 0.00 0.00 0.00 17 1008.7
20260503231917 74 269 7.0 10.0 0.00 0.00 0.00 17 1008.9
20260503231818 74 265 7.0 10.0 0.00 0.00 0.00 16 1008.9
20260503231719 75 270 10.0 14.0 0.00 0.00 0.00 17 1008.8
20260503231215 74 279 6.0 12.0 0.00 0.00 0.00 17 1008.8
20260503230916 74 318 10.0 17.0 0.00 0.00 0.00 16 1009.0
20260503230711 75 270 5.0 10.0 0.00 0.00 0.00 16 1009.0
20260503230208 75 275 6.0 15.0 0.00 0.00 0.00 18 1009.0
20260503225916 74 276 4.0 7.0 0.00 0.00 0.00 18 1009.2
20260503225705 75 286 5.0 8.0 0.00 0.00 0.00 17 1009.1
20260503225200 75 249 5.0 12.0 0.00 0.00 0.00 18 1009.2
20260503224917 74 322 5.0 8.0 0.00 0.00 0.00 19 1009.6
20260503224658 75 322 6.0 11.0 0.00 0.00 0.00 19 1009.3
20260503224155 74 271 3.0 8.0 0.00 0.00 0.00 19 1009.5
20260503223653 74 289 6.0 12.0 0.00 0.00 0.00 19 1009.3
20260503223149 74 247 4.0 8.0 0.00 0.00 0.00 18 1009.7
20260503222918 74 268 6.0 10.0 0.00 0.00 0.00 19 1009.8
20260503222646 74 272 3.0 7.0 0.00 0.00 0.00 18 1009.8
20260503222144 74 271 10.0 14.0 0.00 0.00 0.00 18 1009.6
20260503221918 73 298 3.0 6.0 0.00 0.00 0.00 18 1009.9
20260503221642 73 298 6.0 9.0 0.00 0.00 0.00 19 1009.9
20260503221139 73 269 16.0 20.0 0.00 0.00 0.00 19 1009.8
20260503221016 73 267 10.0 14.0 0.00 0.00 0.00 19 1010.1
20260503220636 73 268 6.0 11.0 0.00 0.00 0.00 20 1010.1
20260503220132 74 286 6.0 12.0 0.00 0.00 0.00 20 1010.2
20260503220019 73 280 6.0 13.0 0.00 0.00 0.00 19 1010.4
20260503215630 73 273 5.0 8.0 0.00 0.00 0.00 20 1010.2
20260503215126 73 270 8.0 13.0 0.00 0.00 0.00 21 1010.2
20260503214625 72 270 7.0 11.0 0.00 0.00 0.00 19 1010.3
20260503214121 73 259 7.0 12.0 0.00 0.00 0.00 20 1010.6
20260503214115 72 259 7.0 11.0 0.00 0.00 0.00 20 1010.7
20260503213620 73 278 4.0 6.0 0.00 0.00 0.00 20 1010.4
20260503213116 73 271 5.0 10.0 0.00 0.00 0.00 20 1010.7
20260503212614 72 264 5.0 9.0 0.00 0.00 0.00 20 1010.7
20260503212117 71 300 4.0 9.0 0.00 0.00 0.00 21 1010.8
20260503212111 72 301 3.0 7.0 0.00 0.00 0.00 21 1010.7
20260503211609 71 278 8.0 11.0 0.00 0.00 0.00 20 1010.7
20260503211118 71 276 8.0 15.0 0.00 0.00 0.00 20 1010.8
20260503211103 72 269 10.0 15.0 0.00 0.00 0.00 20 1010.6
20260503210600 72 251 6.0 8.0 0.00 0.00 0.00 21 1011.0
20260503210118 72 295 6.0 14.0 0.00 0.00 0.00 22 1011.2
20260503210056 72 279 5.0 10.0 0.00 0.00 0.00 22 1011.0
20260503205553 72 307 4.0 8.0 0.00 0.00 0.00 23 1010.9
20260503205216 71 270 8.0 11.0 0.00 0.00 0.00 21 1011.1
20260503205049 71 252 6.0 8.0 0.00 0.00 0.00 22 1011.0
20260503204546 71 270 6.0 9.0 0.00 0.00 0.00 22 1011.1
20260503204218 71 267 7.0 10.0 0.00 0.00 0.00 22 1011.2
20260503204043 71 270 9.0 14.0 0.00 0.00 0.00 23 1011.2
20260503203541 71 267 13.0 15.0 0.00 0.00 0.00 24 1011.2
20260503203316 71 269 4.0 7.0 0.00 0.00 0.00 23 1011.3
20260503203038 71 264 7.0 10.0 0.00 0.00 0.00 24 1011.3
20260503202536 71 262 9.0 16.0 0.00 0.00 0.00 25 1011.5
20260503202319 70 265 6.0 10.0 0.00 0.00 0.00 24 1011.6
20260503202033 71 263 10.0 13.0 0.00 0.00 0.00 25 1011.4
20260503201531 72 270 4.0 8.0 0.00 0.00 0.00 25 1011.7
20260503201319 71 270 8.0 16.0 0.00 0.00 0.00 26 1011.8
20260503201028 71 263 2.0 6.0 0.00 0.00 0.00 26 1011.8
20260503200524 70 277 5.0 9.0 0.00 0.00 0.00 27 1011.8
20260503200021 69 267 5.0 12.0 0.00 0.00 0.00 26 1012.0
20260503195518 69 257 8.0 11.0 0.00 0.00 0.00 31 1012.2
20260503195316 68 257 7.0 10.0 0.00 0.00 0.00 32 1012.3
20260503195015 68 273 4.0 8.0 0.00 0.00 0.00 34 1012.2
20260503194513 68 235 7.0 10.0 0.00 0.00 0.00 35 1012.3
20260503194317 68 241 7.0 12.0 0.00 0.00 0.00 35 1012.6
20260503194012 68 242 5.0 8.0 0.00 0.00 0.00 35 1012.4
20260503193509 68 249 4.0 7.0 0.00 0.00 0.00 37 1012.5
20260503193004 67 252 5.0 7.0 0.00 0.00 0.00 38 1012.6
20260503192500 66 269 3.0 5.0 0.00 0.00 0.00 38 1012.6
20260503192316 66 261 3.0 6.0 0.00 0.00 0.00 38 1012.8
20260503191956 66 277 4.0 8.0 0.00 0.00 0.00 39 1012.6
20260503191454 66 269 5.0 6.0 0.00 0.00 0.00 38 1012.6
20260503191318 65 257 4.0 6.0 0.00 0.00 0.00 39 1012.8
20260503190949 66 261 4.0 8.0 0.00 0.00 0.00 38 1012.8
20260503190447 66 253 5.0 7.0 0.00 0.00 0.00 38 1013.0
20260503185944 65 276 5.0 8.0 0.00 0.00 0.00 40 1013.0
20260503185440 65 280 5.0 8.0 0.00 0.00 0.00 42 1013.1
20260503185317 64 300 2.0 4.0 0.00 0.00 0.00 42 1013.3
20260503184940 64 301 4.0 6.0 0.00 0.00 0.00 41 1013.2
20260503184437 64 269 6.0 9.0 0.00 0.00 0.00 43 1013.2
20260503183933 63 270 6.0 9.0 0.00 0.00 0.00 43 1013.2
20260503183430 63 225 4.0 7.0 0.00 0.00 0.00 42 1013.3
20260503183416 63 225 4.0 6.0 0.00 0.00 0.00 42 1013.5
20260503182927 63 258 6.0 8.0 0.00 0.00 0.00 44 1013.2
20260503182426 63 247 6.0 9.0 0.00 0.00 0.00 44 1013.3
20260503182417 62 247 5.0 9.0 0.00 0.00 0.00 44 1013.5
20260503181923 63 230 5.0 8.0 0.00 0.00 0.00 44 1013.3
20260503181420 62 252 6.0 8.0 0.00 0.00 0.00 45 1013.4
20260503180915 62 251 6.0 8.0 0.00 0.00 0.00 46 1013.4
20260503180418 61 256 3.0 5.0 0.00 0.00 0.00 45 1013.7
20260503180414 61 269 4.0 7.0 0.00 0.00 0.00 46 1013.5
20260503175910 61 257 6.0 8.0 0.00 0.00 0.00 47 1013.4
20260503175418 60 232 6.0 9.0 0.00 0.00 0.00 46 1013.8
20260503175409 60 227 4.0 7.0 0.00 0.00 0.00 47 1013.6
20260503174904 60 256 5.0 6.0 0.00 0.00 0.00 48 1013.6
20260503174516 60 227 5.0 7.0 0.00 0.00 0.00 47 1013.8
20260503174402 60 270 4.0 6.0 0.00 0.00 0.00 47 1013.6
20260503173857 59 255 3.0 5.0 0.00 0.00 0.00 48 1013.9
20260503173517 59 262 6.0 8.0 0.00 0.00 0.00 47 1014.0
20260503173353 60 240 6.0 9.0 0.00 0.00 0.00 48 1014.0
20260503172850 60 264 6.0 10.0 0.00 0.00 0.00 48 1014.0
20260503172519 59 270 5.0 8.0 0.00 0.00 0.00 49 1014.1
20260503172348 59 272 6.0 9.0 0.00 0.00 0.00 49 1014.0
20260503171844 59 262 6.0 10.0 0.00 0.00 0.00 49 1014.1
20260503171617 58 254 6.0 8.0 0.00 0.00 0.00 51 1014.2
20260503171341 58 246 6.0 9.0 0.00 0.00 0.00 51 1014.0
20260503170838 58 229 8.0 9.0 0.00 0.00 0.00 52 1014.1
20260503170716 57 241 9.0 12.0 0.00 0.00 0.00 51 1014.1
20260503170334 57 232 9.0 11.0 0.00 0.00 0.00 52 1014.0
20260503150819 51 225 2.0 3.0 0.00 0.00 0.00 64 1015.2
20260503150727 51 225 3.0 4.0 0.00 0.00 0.00 63 1015.0
20260503150223 51 225 3.0 4.0 0.00 0.00 0.00 65 1015.0
20260503140147 50 180 5.0 6.0 0.00 0.00 0.00 63 1014.7
20260503131117 48 135 2.0 4.0 0.00 0.00 0.00 61 1014.4
20260503130614 48 157 1.0 2.0 0.00 0.00 0.00 62 1014.5
20260503130112 49 44 1.0 3.0 0.00 0.00 0.00 61 1014.5
20260503110720 52 141 9.0 10.0 0.00 0.00 0.00 50 1015.4
20260503110504 53 136 7.0 9.0 0.00 0.00 0.00 51 1015.3
20260503090350 52 102 6.0 8.0 0.00 0.00 0.00 55 1015.6
20260503081517 54 133 8.0 9.0 0.00 0.00 0.00 51 1016.1
20260503081312 55 135 8.0 10.0 0.00 0.00 0.00 51 1015.9
20260503080808 54 135 8.0 9.0 0.00 0.00 0.00 52 1016.0
20260503080518 54 135 8.0 9.0 0.00 0.00 0.00 51 1016.3
20260503080305 54 135 9.0 10.0 0.00 0.00 0.00 52 1016.2